Tracking 31028 objects as of 17-Jul-2025
HD Live streaming from Space Station
objects crossing your sky now

STARLINK-5326

Track STARLINK-5326 now!
10-day predictions
STARLINK-5326 is classified as:


NORAD ID: 55656
Int'l Code: 2023-021AE
Perigee: 577.1 km
Apogee: 581.3 km
Inclination: 70.0 °
Period: 96.1 minutes
Semi major axis: 6950 km
RCS: Unknown
Launch date: February 17, 2023
Source: United States (US)
Launch site: AIR FORCE WESTERN TEST RANGE (AFWTR)
Your satellite tracking list
Your tracking list is empty




NASA's NSSDC Master Catalog

Two Line Element Set (TLE):
1 55656U 23021AE  25197.94358061  .00000423  00000-0  43215-4 0  9993
2 55656  69.9996  58.6643 0003035 270.6378  89.4434 14.98324593133482
Source of the keplerian elements: AFSPC